GW2591 Weather Reports


time (UTC)temp
C
wind
direction
speed
KPH
gust
KPH
rain 1hr
cm
rain 24hr
cm
rain mn
cm
humidity
%
barometer
mb
20260504130337 13 209 27.4 29.0 0.00 0.00 0.00 58 1006.6
20260504120300 11 208 12.9 32.2 0.00 0.00 0.00 63 1006.6
20260504110224 10 177 6.4 25.7 0.00 0.00 0.00 65 1006.4
20260504100142 10 214 14.5 32.2 0.00 0.00 0.00 64 1006.4
20260504090105 10 196 24.1 24.1 0.00 0.00 0.00 63 1006.9
20260504081535 10 202 17.7 25.7 0.00 0.00 0.00 62 1007.5
20260504081031 10 192 8.0 22.5 0.00 0.00 0.00 62 1007.3
20260504080528 10 197 20.9 29.0 0.00 0.00 0.00 62 1007.6
20260504050340 10 202 8.0 20.9 0.00 0.00 0.00 66 1009.8
20260504045838 10 168 3.2 14.5 0.00 0.00 0.00 66 1009.8
20260504045332 10 165 8.0 11.3 0.00 0.00 0.00 67 1009.7
20260504044829 9 210 4.8 12.9 0.00 0.00 0.00 67 1009.8
20260504044327 10 161 4.8 17.7 0.00 0.00 0.00 67 1009.8
20260504043824 9 157 3.2 19.3 0.00 0.00 0.00 67 1009.8
20260504043321 9 177 6.4 19.3 0.00 0.00 0.00 67 1009.5
20260504042818 9 204 4.8 22.5 0.00 0.00 0.00 68 1009.8
20260504042314 9 167 4.8 19.3 0.00 0.00 0.00 68 1009.7
20260504041811 10 175 8.0 17.7 0.00 0.00 0.00 68 1010.0
20260504041307 9 146 3.2 20.9 0.00 0.00 0.00 67 1009.8
20260504040803 10 220 4.8 14.5 0.00 0.00 0.00 67 1010.0
20260504040301 10 219 9.7 17.7 0.00 0.00 0.00 66 1010.0
20260504035756 10 150 9.7 17.7 0.00 0.00 0.00 66 1009.9
20260504035254 10 112 3.2 22.5 0.00 0.00 0.00 66 1010.1
20260504034751 10 142 6.4 19.3 0.00 0.00 0.00 66 1010.3
20260504034249 10 191 8.0 17.7 0.00 0.00 0.00 65 1010.2
20260504033746 10 198 6.4 16.1 0.00 0.00 0.00 65 1010.1
20260504033244 10 195 6.4 16.1 0.00 0.00 0.00 65 1010.3
20260504032740 10 143 4.8 25.7 0.00 0.00 0.00 66 1010.4
20260504032237 10 62 4.8 20.9 0.00 0.00 0.00 66 1010.2
20260504031734 9 170 6.4 22.5 0.00 0.00 0.00 67 1010.4
20260504031232 9 187 8.0 27.4 0.00 0.00 0.00 67 1010.4
20260504030727 9 131 9.7 27.4 0.00 0.00 0.00 67 1010.5
20260504030225 9 200 4.8 17.7 0.00 0.00 0.00 67 1010.5
20260504025721 9 199 9.7 19.3 0.00 0.00 0.00 67 1010.5
20260504025218 9 160 8.0 19.3 0.00 0.00 0.00 67 1010.6
20260504024715 9 323 8.0 24.1 0.00 0.00 0.00 67 1010.6
20260504024211 9 142 8.0 19.3 0.00 0.00 0.00 68 1010.8
20260504023708 9 244 3.2 14.5 0.00 0.00 0.00 68 1010.5
20260504023204 9 170 8.0 19.3 0.00 0.00 0.00 68 1010.7
20260504022700 9 92 4.8 22.5 0.00 0.00 0.00 68 1011.0
20260504022156 9 183 14.5 19.3 0.00 0.00 0.00 69 1010.9
20260504021655 9 199 6.4 14.5 0.00 0.00 0.00 69 1010.9
20260504021151 9 209 3.2 9.7 0.00 0.00 0.00 69 1011.0
20260504020648 9 168 4.8 19.3 0.00 0.00 0.00 69 1010.9
20260504020144 9 121 19.3 19.3 0.00 0.00 0.00 69 1010.9
20260504015641 9 210 6.4 17.7 0.00 0.00 0.00 69 1010.9
20260504015137 9 130 8.0 11.3 0.00 0.00 0.00 68 1010.9
20260504014633 9 147 3.2 11.3 0.00 0.00 0.00 68 1010.9
20260504014130 9 165 1.6 17.7 0.00 0.00 0.00 67 1010.8
20260504013628 10 203 6.4 11.3 0.00 0.00 0.00 67 1010.8
20260504013124 10 189 11.3 12.9 0.00 0.00 0.00 66 1010.9
20260504012622 10 192 8.0 17.7 0.00 0.00 0.00 66 1010.9
20260504012120 10 221 6.4 12.9 0.00 0.00 0.00 66 1010.9
20260504011616 10 190 8.0 16.1 0.00 0.00 0.00 65 1011.1
20260504011113 10 174 9.7 12.9 0.00 0.00 0.00 65 1011.0
20260504010608 10 197 4.8 12.9 0.00 0.00 0.00 65 1011.1
20260504010105 10 30 4.8 14.5 0.00 0.00 0.00 64 1011.0
20260504005601 10 182 8.0 14.5 0.00 0.00 0.00 63 1011.1
20260504005059 10 190 8.0 12.9 0.00 0.00 0.00 63 1011.2
20260504004556 10 201 6.4 9.7 0.00 0.00 0.00 64 1011.3
20260504004053 10 194 1.6 14.5 0.00 0.00 0.00 63 1011.1
20260504003549 10 193 12.9 16.1 0.00 0.00 0.00 62 1011.0
20260504003046 10 199 11.3 16.1 0.00 0.00 0.00 62 1011.1
20260504002543 10 184 4.8 11.3 0.00 0.00 0.00 63 1011.0
20260504002041 10 217 16.1 19.3 0.00 0.00 0.00 62 1011.3
20260504001538 10 218 17.7 24.1 0.00 0.00 0.00 61 1011.3
20260504001034 10 201 9.7 17.7 0.00 0.00 0.00 60 1011.3
20260504000532 10 193 8.0 22.5 0.00 0.00 0.00 59 1011.4
20260504000029 10 221 8.0 19.3 0.00 0.00 0.00 59 1011.4
20260503235527 11 207 20.9 22.5 0.00 0.00 0.00 59 1011.4
20260503235023 11 209 9.7 25.7 0.00 0.00 0.00 58 1011.4
20260503234521 11 213 16.1 41.8 0.00 0.00 0.00 57 1011.6
20260503234020 11 219 14.5 37.0 0.00 0.00 0.00 55 1011.9
20260503233515 11 233 14.5 43.5 0.00 0.00 0.00 56 1011.6
20260503233011 11 221 11.3 22.5 0.00 0.00 0.00 58 1011.9
20260503232509 11 219 12.9 25.7 0.00 0.00 0.00 56 1011.7
20260503232006 11 229 14.5 25.7 0.00 0.00 0.00 57 1011.8
20260503231504 11 225 17.7 30.6 0.00 0.00 0.00 57 1011.8
20260503231000 11 234 16.1 41.8 0.00 0.00 0.00 57 1011.9
20260503230457 11 209 35.4 37.0 0.00 0.00 0.00 57 1011.7
20260503225954 11 211 11.3 29.0 0.00 0.00 0.00 56 1011.7
20260503225451 12 222 17.7 40.2 0.00 0.00 0.00 56 1011.9
20260503224946 12 230 38.6 49.9 0.00 0.00 0.00 54 1011.7
20260503224444 12 238 30.6 54.7 0.00 0.00 0.00 55 1011.7
20260503223942 12 241 53.1 64.4 0.00 0.00 0.00 55 1011.8
20260503223439 12 250 33.8 57.9 0.00 0.00 0.00 55 1011.6
20260503222934 12 239 41.8 62.8 0.00 0.00 0.00 54 1011.5
20260503222433 13 245 41.8 48.3 0.00 0.00 0.00 50 1011.6
20260503221931 15 250 35.4 46.7 0.00 0.00 0.00 35 1011.4
20260503221429 15 221 25.7 32.2 0.00 0.00 0.00 34 1011.3
20260503220926 15 241 48.3 48.3 0.00 0.00 0.00 34 1011.4
20260503220422 15 249 30.6 33.8 0.00 0.00 0.00 33 1011.1
20260503215919 15 218 11.3 35.4 0.00 0.00 0.00 32 1011.4
20260503215416 15 250 14.5 30.6 0.00 0.00 0.00 33 1011.4
20260503214914 15 240 17.7 40.2 0.00 0.00 0.00 32 1011.2
20260503214411 15 252 29.0 54.7 0.00 0.00 0.00 33 1011.3
20260503213908 15 221 14.5 56.3 0.00 0.00 0.00 33 1011.4
20260503213406 15 215 27.4 51.5 0.00 0.00 0.00 32 1011.4
20260503212902 15 230 9.7 35.4 0.00 0.00 0.00 33 1011.4
20260503212400 15 221 32.2 37.0 0.00 0.00 0.00 32 1011.5
20260503211857 15 227 14.5 32.2 0.00 0.00 0.00 32 1011.5
20260503211354 15 239 11.3 35.4 0.00 0.00 0.00 32 1011.7
20260503210849 15 223 24.1 49.9 0.00 0.00 0.00 30 1011.6
20260503210347 15 212 24.1 40.2 0.00 0.00 0.00 31 1011.7
20260503205841 15 229 37.0 49.9 0.00 0.00 0.00 30 1011.8
20260503205339 15 232 30.6 49.9 0.00 0.00 0.00 31 1011.9
20260503204835 15 213 35.4 56.3 0.00 0.00 0.00 29 1011.7
20260503204332 15 219 32.2 43.5 0.00 0.00 0.00 30 1011.9
20260503203829 15 240 17.7 43.5 0.00 0.00 0.00 30 1011.9
20260503203327 15 236 35.4 56.3 0.00 0.00 0.00 33 1011.9
20260503202823 15 227 22.5 38.6 0.00 0.00 0.00 30 1012.1
20260503202322 15 224 22.5 32.2 0.00 0.00 0.00 32 1012.0
20260503201820 15 226 25.7 62.8 0.00 0.00 0.00 29 1012.0
20260503201316 15 233 17.7 35.4 0.00 0.00 0.00 34 1012.1
20260503200814 15 249 20.9 48.3 0.00 0.00 0.00 32 1012.2
20260503200309 15 259 14.5 48.3 0.00 0.00 0.00 31 1012.2
20260503195807 15 232 30.6 46.7 0.00 0.00 0.00 31 1012.3
20260503195304 15 217 19.3 53.1 0.00 0.00 0.00 31 1012.3
20260503194801 16 224 16.1 51.5 0.00 0.00 0.00 29 1012.3
20260503194256 15 244 22.5 49.9 0.00 0.00 0.00 32 1012.5
20260503193753 15 226 32.2 41.8 0.00 0.00 0.00 30 1012.4
20260503193249 15 238 32.2 49.9 0.00 0.00 0.00 33 1012.6
20260503192745 15 242 12.9 40.2 0.00 0.00 0.00 33 1012.6
20260503192240 15 211 41.8 41.8 0.00 0.00 0.00 30 1012.6
20260503191737 15 221 27.4 45.1 0.00 0.00 0.00 29 1012.7
20260503191234 15 221 20.9 45.1 0.00 0.00 0.00 30 1012.9
20260503190731 15 219 14.5 43.5 0.00 0.00 0.00 32 1012.7
20260503190228 15 196 17.7 45.1 0.00 0.00 0.00 32 1012.8
20260503185725 15 227 16.1 49.9 0.00 0.00 0.00 31 1013.0
20260503185221 15 233 30.6 41.8 0.00 0.00 0.00 32 1013.0
20260503184715 15 230 22.5 30.6 0.00 0.00 0.00 28 1013.0
20260503184212 15 256 12.9 43.5 0.00 0.00 0.00 31 1013.2
20260503183708 15 231 14.5 45.1 0.00 0.00 0.00 31 1013.1
20260503183206 15 245 20.9 35.4 0.00 0.00 0.00 35 1013.2
20260503182704 15 235 14.5 35.4 0.00 0.00 0.00 31 1013.5
20260503182202 15 212 27.4 48.3 0.00 0.00 0.00 28 1013.3
20260503181658 15 212 35.4 41.8 0.00 0.00 0.00 30 1013.5
20260503181155 15 237 33.8 35.4 0.00 0.00 0.00 31 1013.6
20260503180652 15 228 22.5 43.5 0.00 0.00 0.00 30 1013.6
20260503180150 15 226 24.1 49.9 0.00 0.00 0.00 31 1013.5
20260503175647 15 237 19.3 48.3 0.00 0.00 0.00 29 1013.6
20260503175144 15 223 19.3 49.9 0.00 0.00 0.00 30 1013.8
20260503174640 15 235 11.3 59.5 0.00 0.00 0.00 30 1013.8
20260503174138 15 216 24.1 51.5 0.00 0.00 0.00 29 1013.9
20260503173632 15 246 25.7 35.4 0.00 0.00 0.00 32 1013.8
20260503173130 15 228 29.0 43.5 0.00 0.00 0.00 31 1014.1
20260503172627 15 225 37.0 49.9 0.00 0.00 0.00 32 1013.8
20260503172124 15 233 16.1 51.5 0.00 0.00 0.00 38 1013.9
20260503171620 15 264 24.1 48.3 0.00 0.00 0.00 35 1014.2
20260503171117 14 265 29.0 40.2 0.00 0.00 0.00 34 1014.1
20260503170615 15 223 11.3 48.3 0.00 0.00 0.00 33 1014.3
20260503170111 15 262 29.0 43.5 0.00 0.00 0.00 34 1014.4
20260503151006 12 254 9.7 41.8 0.00 0.00 0.00 44 1015.5
20260503150503 12 245 32.2 35.4 0.00 0.00 0.00 44 1015.3
20260503131356 8 233 27.4 48.3 0.00 0.00 0.00 49 1015.7
20260503130853 8 235 20.9 33.8 0.00 0.00 0.00 53 1015.7